H1 CPF 2 NER 2025 12 14 9 348 01 glonass140 H2 1903001 9140 44299 2025 12 14 0 0 0 2025 12 17 23 45 0 900 1 1 0 0 0 1 H9 10 0 61023 0.00000 0 10032404.366 4599403.748 -22980191.652 10 0 61023 900.00000 0 8886821.559 7184453.056 -22787499.218 10 0 61023 1800.00000 0 7947982.361 9797447.866 -22151464.091 10 0 61023 2700.00000 0 7229350.055 12370656.265 -21084437.177 10 0 61023 3600.00000 0 6732123.833 14835987.059 -19607166.910 10 0 61023 4500.00000 0 6445345.975 17127632.883 -17748395.676 10 0 61023 5400.00000 0 6346536.107 19184630.146 -15544299.138 10 0 61023 6300.00000 0 6402824.975 20953228.949 -13037779.260 10 0 61023 7200.00000 0 6572538.921 22388973.934 -10277624.890 10 0 61023 8100.00000 0 6807167.089 23458409.179 -7317556.450 10 0 61023 9000.00000 0 7053627.049 24140335.976 -4215173.775 10 0 61023 9900.00000 0 7256731.834 24426571.275 -1030828.265 10 0 61023 10800.00000 0 7361752.824 24322175.716 2173557.961 10 0 61023 11700.00000 0 7316968.978 23845142.676 5335702.107 10 0 61023 12600.00000 0 7076093.575 23025562.556 8394175.577 10 0 61023 13500.00000 0 6600475.114 21904298.714 11289599.451 10 0 61023 14400.00000 0 5860978.811 20531231.910 13965796.948 10 0 61023 15300.00000 0 4839468.877 18963148.092 16370880.359 10 0 61023 16200.00000 0 3529828.869 17261358.985 18458251.651 10 0 61023 17100.00000 0 1938476.926 15489155.692 20187497.895 10 0 61023 18000.00000 0 84354.008 13709202.016 21525165.034 10 0 61023 18900.00000 0 -2001614.796 11980976.169 22445396.024 10 0 61023 19800.00000 0 -4277563.976 10358366.965 22930422.138 10 0 61023 20700.00000 0 -6692193.570 8887523.847 22970898.946 10 0 61023 21600.00000 0 -9186675.715 7605049.114 22566081.349 10 0 61023 22500.00000 0 -11696883.710 6536606.412 21723834.866 10 0 61023 23400.00000 0 -14155852.250 5696002.208 20460483.213 10 0 61023 24300.00000 0 -16496368.026 5084777.398 18800494.990 10 0 61023 25200.00000 0 -18653584.390 4692325.110 16776015.108 10 0 61023 26100.00000 0 -20567552.536 4496529.102 14426249.284 10 0 61023 27000.00000 0 -22185564.864 4464895.523 11796712.643 10 0 61023 27900.00000 0 -23464213.598 4556130.319 8938356.006 10 0 61023 28800.00000 0 -24371079.143 4722095.915 5906585.897 10 0 61023 29700.00000 0 -24885977.769 4910064.765 2760196.488 10 0 61023 30600.00000 0 -25001716.275 5065174.709 -439766.339 10 0 61023 31500.00000 0 -24724321.662 5132982.309 -3631187.086 10 0 61023 32400.00000 0 -24072735.757 5062005.916 -6752085.951 10 0 61023 33300.00000 0 -23077987.088 4806150.333 -9741823.829 10 0 61023 34200.00000 0 -21781874.344 4326909.679 -12542283.195 10 0 61023 35100.00000 0 -20235216.307 3595254.189 -15099001.511 10 0 61023 36000.00000 0 -18495741.491 2593119.842 -17362234.687 10 0 61023 36900.00000 0 -16625705.907 1314436.401 -19287929.448 10 0 61023 37800.00000 0 -14689338.857 -234351.200 -20838585.368 10 0 61023 38700.00000 0 -12750223.831 -2034291.835 -21983989.521 10 0 61023 39600.00000 0 -10868724.321 -4054468.898 -22701809.216 10 0 61023 40500.00000 0 -9099562.367 -6253051.740 -22978031.143 10 0 61023 41400.00000 0 -7489651.133 -8578815.270 -22807238.177 10 0 61023 42300.00000 0 -6076272.138 -10973065.388 -22192718.301 10 0 61023 43200.00000 0 -4885673.123 -13371890.741 -21146403.282 10 0 61023 44100.00000 0 -3932144.842 -15708647.429 -19688638.061 10 0 61023 45000.00000 0 -3217614.824 -17916573.248 -17847785.087 10 0 61023 45900.00000 0 -2731774.319 -19931422.403 -15659671.114 10 0 61023 46800.00000 0 -2452732.052 -21694010.576 -13166887.092 10 0 61023 47700.00000 0 -2348166.094 -23152563.704 -10417954.863 10 0 61023 48600.00000 0 -2376923.966 -24264772.060 -7466377.092 10 0 61023 49500.00000 0 -2491002.057 -24999463.508 -4369589.371 10 0 61023 50400.00000 0 -2637819.288 -25337825.881 -1187835.533 10 0 61023 51300.00000 0 -2762687.490 -25274127.568 2017011.154 10 0 61023 52200.00000 0 -2811372.681 -24815906.638 5182657.188 10 0 61023 53100.00000 0 -2732637.759 -23983621.406 8247604.056 10 0 61023 54000.00000 0 -2480658.117 -22809778.113 11152345.225 10 0 61023 54900.00000 0 -2017207.377 -21337573.402 13840521.246 10 0 61023 55800.00000 0 -1313520.471 -19619109.530 16260010.386 10 0 61023 56700.00000 0 -351755.184 -17713257.993 18363933.890 10 0 61023 57600.00000 0 874009.568 -15683261.483 20111556.954 10 0 61023 58500.00000 0 2357280.898 -13594174.663 21469068.767 10 0 61023 59400.00000 0 4079185.451 -11510250.380 22410227.578 10 0 61023 60300.00000 0 6009028.328 -9492379.686 22916859.401 10 0 61023 61200.00000 0 8105354.686 -7595691.373 22979201.765 10 0 61023 62100.00000 0 10317470.592 -5867409.704 22596086.717 10 0 61023 63000.00000 0 12587360.881 -4345058.089 21774960.179 10 0 61023 63900.00000 0 14851925.367 -3055082.043 20531737.495 10 0 61023 64800.00000 0 17045441.698 -2011947.364 18890497.910 10 0 61023 65700.00000 0 19102153.682 -1217749.889 16883023.418 10 0 61023 66600.00000 0 20958878.483 -662352.098 14548190.222 10 0 61023 67500.00000 0 22557525.076 -324040.078 11931223.689 10 0 61023 68400.00000 0 23847419.632 -170672.773 9082830.257 10 0 61023 69300.00000 0 24787341.102 -161274.937 6058222.238 10 0 61023 70200.00000 0 25347181.980 -248006.605 2916053.630 10 0 61023 71100.00000 0 25509164.498 -378425.934 -282712.995 10 0 61023 72000.00000 0 25268560.797 -497949.763 -3475986.817 10 0 61023 72900.00000 0 24633886.229 -552407.620 -6601753.465 10 0 61023 73800.00000 0 23626556.962 -490580.763 -9599280.562 10 0 61023 74700.00000 0 22280025.482 -266618.130 -12410300.315 10 0 61023 75600.00000 0 20638429.628 157773.866 -14980145.777 10 0 61023 76500.00000 0 18754811.243 811461.458 -17258818.250 10 0 61023 77400.00000 0 16688978.708 1712413.892 -19201964.609 10 0 61023 78300.00000 0 14505102.638 2866697.571 -20771745.189 10 0 61023 79200.00000 0 12269145.168 4267978.001 -21937575.080 10 0 61023 80100.00000 0 10046230.329 5897552.130 -22676724.132 10 0 61023 81000.00000 0 7898065.316 7724911.340 -22974763.865 10 0 61023 81900.00000 0 5880520.329 9708812.970 -22825852.388 10 0 61023 82800.00000 0 4041467.914 11798816.734 -22232851.605 10 0 61023 83700.00000 0 2418971.783 13937222.770 -21207274.219 10 0 61023 84600.00000 0 1039900.343 16061330.966 -19769061.306 10 0 61023 85500.00000 0 -80977.693 18105927.509 -17946194.566 10 0 61024 0.00000 0 -941378.557 20005894.623 -15774150.793 10 0 61024 900.00000 0 -1551354.865 21698835.203 -13295207.826 10 0 61024 1800.00000 0 -1932619.677 23127599.683 -10557618.566 10 0 61024 2700.00000 0 -2117374.575 24242612.316 -7614665.434 10 0 61024 3600.00000 0 -2146691.499 25003896.431 -4523616.964 10 0 61024 4500.00000 0 -2068518.744 25382714.529 -1344606.363 10 0 61024 5400.00000 0 -1935396.843 25362754.154 1860545.190 10 0 61024 6300.00000 0 -1801982.412 24940809.984 5029536.805 10 0 61024 7200.00000 0 -1722485.990 24126933.910 8100803.365 10 0 61024 8100.00000 0 -1748133.358 22944047.498 11014713.947 10 0 61024 9000.00000 0 -1924758.488 21427033.876 13714729.497 10 0 61024 9900.00000 0 -2290630.361 19621347.914 16148497.114 10 0 61024 10800.00000 0 -2874605.705 17581203.671 18268859.933 10 0 61024 11700.00000 0 -3694685.642 15367415.387 20034763.609 10 0 61024 12600.00000 0 -4757037.019 13044982.445 21412042.620 10 0 61024 13500.00000 0 -6055519.643 10680518.877 22374072.215 10 0 61024 14400.00000 0 -7571739.431 8339633.918 22902274.496 10 0 61024 15300.00000 0 -9275625.623 6084371.751 22986469.878 10 0 61024 16200.00000 0 -11126508.571 3970815.664 22625068.037 10 0 61024 17100.00000 0 -13074653.964 2046954.757 21825095.267 10 0 61024 18000.00000 0 -15063190.541 350900.380 20602057.977 10 0 61024 18900.00000 0 -17030352.134 -1090475.079 18979644.932 10 0 61024 19800.00000 0 -18911941.815 -2262421.824 16989273.545 10 0 61024 20700.00000 0 -20643916.536 -3162683.080 14669488.325 10 0 61024 21600.00000 0 -22164985.440 -3801337.899 12065222.247 10 0 61024 22500.00000 0 -23419114.074 -4200123.681 9226934.375 10 0 61024 23400.00000 0 -24357830.227 -4391267.356 6209639.553 10 0 61024 24300.00000 0 -24942234.971 -4415874.684 3071848.174 10 0 61024 25200.00000 0 -25144634.405 -4321945.751 -125563.997 10 0 61024 26100.00000 0 -24949723.090 -4162100.509 -3320534.321 10 0 61024 27000.00000 0 -24355268.739 -3991110.675 -6451017.300 10 0 61024 27900.00000 0 -23372268.465 -3863342.659 -9456190.610 10 0 61024 28800.00000 0 -22024569.019 -3830220.180 -12277639.356 10 0 61024 29700.00000 0 -20347965.969 -3937814.611 -14860495.122 10 0 61024 30600.00000 0 -18388818.710 -4224665.872 -17154507.244 10 0 61024 31500.00000 0 -16202238.598 -4719927.061 -19115025.003 10 0 61024 32400.00000 0 -13849925.464 -5441912.438 -20703871.286 10 0 61024 33300.00000 0 -11397742.557 -6397111.392 -21890090.431 10 0 61024 34200.00000 0 -8913130.942 -7579711.373 -22650555.479 10 0 61024 35100.00000 0 -6462471.063 -8971651.289 -22970422.830 10 0 61024 36000.00000 0 -4108501.357 -10543204.535 -22843425.298 10 0 61024 36900.00000 0 -1907901.393 -12254068.388 -22271997.662 10 0 61024 37800.00000 0 90859.943 -14054915.100 -21267232.059 10 0 61024 38700.00000 0 1849321.866 -15889340.471 -19848663.833 10 0 61024 39600.00000 0 3340400.207 -17696128.696 -18043891.767 10 0 61024 40500.00000 0 4549270.603 -19411738.770 -15888039.875 10 0 61024 41400.00000 0 5473730.439 -20972908.157 -13423071.115 10 0 61024 42300.00000 0 6124025.556 -22319264.195 -10696966.423 10 0 61024 43200.00000 0 6522150.462 -23395833.249 -7762785.264 10 0 61024 44100.00000 0 6700653.096 -24155341.725 -4677626.403 10 0 61024 45000.00000 0 6700996.198 -24560211.856 -1501509.743 10 0 61024 45900.00000 0 6571546.148 -24584168.027 1703798.215 10 0 61024 46800.00000 0 6365275.877 -24213386.016 4875991.680 10 0 61024 47700.00000 0 6137280.431 -23447136.917 7953441.281 10 0 61024 48600.00000 0 5942211.501 -22297899.023 10876393.896 10 0 61024 49500.00000 0 5831740.327 -20790933.423 13588132.887 10 0 61024 50400.00000 0 5852156.823 -18963341.678 16036075.987 10 0 61024 51300.00000 0 6042206.660 -16862645.581 18172789.805 10 0 61024 52200.00000 0 6431257.558 -14544948.766 19956901.773 10 0 61024 53100.00000 0 7037871.984 -12072757.109 21353892.699 10 0 61024 54000.00000 0 7868846.096 -9512548.649 22336755.584 10 0 61024 54900.00000 0 8918755.229 -6932193.643 22886509.075 10 0 61024 55800.00000 0 10170025.010 -4398331.233 22992556.658 10 0 61024 56700.00000 0 11593525.423 -1973810.500 22652885.560 10 0 61024 57600.00000 0 13149663.493 284699.239 21874102.127 10 0 61024 58500.00000 0 14789929.733 2328831.204 20671303.307 10 0 61024 59400.00000 0 16458834.693 4120290.399 19067786.661 10 0 61024 60300.00000 0 18096155.848 5632197.336 17094604.097 10 0 61024 61200.00000 0 19639402.034 6849951.610 14789967.305 10 0 61024 62100.00000 0 21026393.408 7771580.534 12198515.527 10 0 61024 63000.00000 0 22197849.810 8407559.164 9370458.864 10 0 61024 63900.00000 0 23099879.613 8780109.949 6360612.850 10 0 61024 64800.00000 0 23686264.921 8922011.881 3227342.165 10 0 61024 65700.00000 0 23920447.040 8874969.544 31433.422 10 0 61024 66600.00000 0 23777128.291 8687611.001 -3165081.458 10 0 61024 67500.00000 0 23243422.062 8413199.218 -6300128.515 10 0 61024 68400.00000 0 22319501.678 8107153.937 -9312798.183 10 0 61024 69300.00000 0 21018719.637 7824489.146 -12144531.123 10 0 61024 70200.00000 0 19367190.950 7617275.020 -14740259.998 10 0 61024 71100.00000 0 17402856.835 7532232.302 -17049484.560 10 0 61024 72000.00000 0 15174066.927 7608561.678 -19027258.697 10 0 61024 72900.00000 0 12737738.400 7876100.790 -20635069.846 10 0 61024 73800.00000 0 10157168.190 8353887.779 -21841593.418 10 0 61024 74700.00000 0 7499589.129 9049193.060 -22623307.260 10 0 61024 75600.00000 0 4833571.484 9957061.336 -22964954.044 10 0 61024 76500.00000 0 2226377.870 11060384.244 -22859842.407 10 0 61024 77400.00000 0 -258618.500 12330501.651 -22309980.788 10 0 61024 78300.00000 0 -2564344.972 13728307.244 -21326041.154 10 0 61024 79200.00000 0 -4642169.925 15205812.686 -19927153.072 10 0 61024 80100.00000 0 -6453683.740 16708105.128 -18140531.893 10 0 61024 81000.00000 0 -7972046.596 18175616.061 -16000948.085 10 0 61024 81900.00000 0 -9182847.639 19546606.157 -13550047.911 10 0 61024 82800.00000 0 -10084440.623 20759761.362 -10835538.695 10 0 61024 83700.00000 0 -10687743.269 21756790.623 -7910254.773 10 0 61024 84600.00000 0 -11015510.328 22484915.388 -4831122.673 10 0 61024 85500.00000 0 -11101112.570 22899145.486 -1658046.306 10 0 61025 0.00000 0 -10986874.947 22964245.081 1547265.089 10 0 61025 900.00000 0 -10722045.690 22656305.497 4722504.375 10 0 61025 1800.00000 0 -10360483.916 21963858.502 7805980.669 10 0 61025 2700.00000 0 -9958164.632 20888483.336 10737821.696 10 0 61025 3600.00000 0 -9570607.813 19444881.975 13461136.217 10 0 61025 4500.00000 0 -9250340.865 17660419.834 15923115.509 10 0 61025 5400.00000 0 -9044502.032 15574151.454 18076052.412 10 0 61025 6300.00000 0 -8992685.889 13235372.135 19878258.729 10 0 61025 7200.00000 0 -9125121.503 10701756.094 21294863.961 10 0 61025 8100.00000 0 -9461259.593 8037158.548 22298480.966 10 0 61025 9000.00000 0 -10008827.651 5309172.712 22869726.723 10 0 61025 9900.00000 0 -10763392.383 2586542.433 22997589.206 10 0 61025 10800.00000 0 -11708447.681 -63463.203 22679634.185 10 0 61025 11700.00000 0 -12816024.558 -2577605.744 21922048.577 10 0 61025 12600.00000 0 -14047797.892 -4899059.188 20739519.868 10 0 61025 13500.00000 0 -15356644.333 -6979520.453 19154953.870 10 0 61025 14400.00000 0 -16688586.999 -8780962.464 17199035.889 10 0 61025 15300.00000 0 -17985046.519 -10276958.306 14909643.173 10 0 61025 16200.00000 0 -19185305.077 -11453522.576 12331119.108 10 0 61025 17100.00000 0 -20229080.991 -12309435.838 9513422.288 10 0 61025 18000.00000 0 -21059106.422 -12856039.356 6511166.025 10 0 61025 18900.00000 0 -21623600.220 -13116509.274 3382566.116 10 0 61025 19800.00000 0 -21878531.951 -13124641.095 188316.637 10 0 61025 20700.00000 0 -21789581.402 -12923195.839 -3009584.718 10 0 61025 21600.00000 0 -21333710.356 -12561877.759 -6149039.096 10 0 61025 22500.00000 0 -20500279.396 -12095029.152 -9169053.275 10 0 61025 23400.00000 0 -19291661.460 -11579139.861 -12010927.000 10 0 61025 24300.00000 0 -17723324.912 -11070277.064 -14619397.406 10 0 61025 25200.00000 0 -15823381.168 -10621544.429 -16943717.830 10 0 61025 26100.00000 0 -13631614.449 -10280678.594 -18938649.601 10 0 61025 27000.00000 0 -11198033.020 -10087885.189 -20565347.106 10 0 61025 27900.00000 0 -8581001.360 -10074006.507 -21792118.676 10 0 61025 28800.00000 0 -5845030.416 -10259098.988 -22595048.206 10 0 61025 29700.00000 0 -3058317.368 -10651481.308 -22958465.233 10 0 61025 30600.00000 0 -290136.851 -11247294.041 -22875254.179 10 0 61025 31500.00000 0 2391808.082 -12030590.214 -22346996.513 10 0 61025 32400.00000 0 4923965.360 -12973953.623 -21383942.886 10 0 61025 33300.00000 0 7249336.579 -14039619.460 -20004815.486 10 0 61025 34200.00000 0 9319603.222 -15181050.454 -18236444.266 10 0 61025 35100.00000 0 11096888.267 -16344902.320 -16113243.859 10 0 61025 36000.00000 0 12555080.289 -17473295.752 -13676541.260 10 0 61025 36900.00000 0 13680665.548 -18506298.910 -10973767.394 10 0 61025 37800.00000 0 14473034.333 -19384515.372 -8057528.483 10 0 61025 38700.00000 0 14944250.052 -20051667.804 -4984575.702 10 0 61025 39600.00000 0 15118292.297 -20457067.729 -1814693.788 10 0 61025 40500.00000 0 15029807.435 -20557866.575 1390469.027 10 0 61025 41400.00000 0 14722421.103 -20320992.475 4568606.184 10 0 61025 42300.00000 0 14246685.472 -19724690.764 7657968.774 10 0 61025 43200.00000 0 13657749.425 -18759602.985 10598568.023 10 0 61025 44100.00000 0 13012851.276 -17429338.927 13333340.456 10 0 61025 45000.00000 0 12368740.752 -15750517.646 15809252.903 10 0 61025 45900.00000 0 11779139.540 -13752275.854 17978326.088 10 0 61025 46800.00000 0 11292347.572 -11475264.272 19798557.452 10 0 61025 47700.00000 0 10949095.666 -8970173.835 21234726.100 10 0 61025 48600.00000 0 10780734.373 -6295852.966 22259065.287 10 0 61025 49500.00000 0 10807834.523 -3517093.736 22851790.533 10 0 61025 50400.00000 0 11039257.578 -702178.190 23001474.198 10 0 61025 51300.00000 0 11471734.221 2079714.405 22705260.211 10 0 61025 52200.00000 0 12089968.509 4761133.119 21968915.440 10 0 61025 53100.00000 0 12867263.142 7278906.321 20806717.067 10 0 61025 54000.00000 0 13766639.842 9576513.757 19241178.125 10 0 61025 54900.00000 0 14742408.398 11606182.862 17302616.123 10 0 61025 55800.00000 0 15742119.233 13330623.580 15028572.496 10 0 61025 56700.00000 0 16708818.381 14724330.763 12463093.240 10 0 61025 57600.00000 0 17583510.931 15774400.906 9655883.719 10 0 61025 58500.00000 0 18307730.046 16480829.833 6661353.116 10 0 61025 59400.00000 0 18826103.863 16856279.485 3537566.238 10 0 61025 60300.00000 0 19088812.311 16925323.916 345122.364 10 0 61025 61200.00000 0 19053830.033 16723206.408 -2854017.432 10 0 61025 62100.00000 0 18688860.243 16294160.151 -5997731.870 10 0 61025 63000.00000 0 17972877.041 15689363.366 -9024946.532 10 0 61025 63900.00000 0 16897209.874 14964615.264 -11876822.644 10 0 61025 64800.00000 0 15466123.025 14177831.144 -14497904.091 10 0 61025 65700.00000 0 13696864.095 13386462.657 -16837199.928 10 0 61025 66600.00000 0 11619177.833 12644952.559 -18849180.883 10 0 61025 67500.00000 0 9274304.094 12002331.793 -20494670.094 10 0 61025 68400.00000 0 6713500.429 11500060.836 -21741610.459 10 0 61025 69300.00000 0 3996149.834 11170206.855 -22565693.393 10 0 61025 70200.00000 0 1187531.594 11034034.063 -22950836.585 10 0 61025 71100.00000 0 -1643652.677 11101067.191 -22889501.282 10 0 61025 72000.00000 0 -4427895.335 11368667.980 -22382842.717 10 0 61025 72900.00000 0 -7097532.902 11822142.924 -21440690.574 10 0 61025 73800.00000 0 -9589320.185 12435378.010 -20081359.598 10 0 61025 74700.00000 0 -11846821.417 13171973.847 -18331293.809 10 0 61025 75600.00000 0 -13822519.131 13986833.347 -16224551.036 10 0 61025 76500.00000 0 -15479553.238 14828134.818 -13802137.645 10 0 61025 77400.00000 0 -16793018.235 15639606.860 -11111206.448 10 0 61025 78300.00000 0 -17750765.132 16363008.504 -8204133.576 10 0 61025 79200.00000 0 -18353675.514 16940709.198 -5137492.665 10 0 61025 80100.00000 0 -18615397.555 17318258.889 -1970946.926 10 0 61025 81000.00000 0 -18561556.537 17446838.865 1233918.592 10 0 61025 81900.00000 0 -18228474.759 17285489.104 4414801.055 10 0 61025 82800.00000 0 -17661456.383 16803017.480 7509895.890 10 0 61025 83700.00000 0 -16912711.074 15979509.817 10459100.538 10 0 61025 84600.00000 0 -16039005.378 14807376.837 13205182.031 10 0 61025 85500.00000 0 -15099141.872 13291893.760 15694885.494 10 0 61026 0.00000 0 -14151373.126 11451209.963 17879962.039 10 0 61026 900.00000 0 -13250859.067 9315827.135 19718097.713 10 0 61026 1800.00000 0 -12447275.924 6927570.092 21173723.412 10 0 61026 2700.00000 0 -11782674.988 4338089.615 22218694.958 10 0 61026 3600.00000 0 -11289681.654 1606961.494 22832828.291 10 0 61026 4500.00000 0 -10990108.878 -1200540.858 23004281.708 10 0 61026 5400.00000 0 -10894042.383 -4015908.611 22729778.462 10 0 61026 6300.00000 0 -10999435.113 -6769993.657 22014666.122 10 0 61026 7200.00000 0 -11292227.417 -9395632.396 20872811.875 10 0 61026 8100.00000 0 -11746987.574 -11830189.857 19326335.810 10 0 61026 9000.00000 0 -12328045.856 -14017920.097 17405186.997 10 0 61026 9900.00000 0 -12991074.805 -15912046.180 15146569.949 10 0 61026 10800.00000 0 -13685049.847 -17476474.481 12594231.713 10 0 61026 11700.00000 0 -14354508.413 -18687072.905 9797622.465 10 0 61026 12600.00000 0 -14942013.066 -19532460.383 6810944.939 10 0 61026 13500.00000 0 -15390715.295 -20014275.166 3692110.331 10 0 61026 14400.00000 0 -15646912.090 -20146910.973 501620.244 10 0 61026 15300.00000 0 -15662487.302 -19956732.188 -2698603.971 10 0 61026 16200.00000 0 -15397134.258 -19480801.122 -5846421.876 10 0 61026 17100.00000 0 -14820265.001 -18765170.918 -8880681.269 10 0 61026 18000.00000 0 -13912524.386 -17862815.990 -11742408.348 10 0 61026 18900.00000 0 -12666843.759 -16831287.327 -14375957.240 10 0 61026 19800.00000 0 -11088988.184 -15730191.603 -16730096.119 10 0 61026 20700.00000 0 -9197572.434 -14618600.632 -18759008.308 10 0 61026 21600.00000 0 -7023543.337 -13552500.621 -20423188.563 10 0 61026 22500.00000 0 -4609148.436 -12582388.999 -21690216.767 10 0 61026 23400.00000 0 -2006432.656 -11751120.400 -22535393.748 10 0 61026 24300.00000 0 724675.604 -11092092.766 -22942226.656 10 0 61026 25200.00000 0 3518610.149 -10627850.182 -22902754.266 10 0 61026 26100.00000 0 6306651.712 -10369161.445 -22417705.707 10 0 61026 27000.00000 0 9019548.810 -10314613.221 -21496489.292 10 0 61026 27900.00000 0 11590166.089 -10450734.924 -20157011.427 10 0 61026 28800.00000 0 13956050.075 -10752649.913 -18425328.864 10 0 61026 29700.00000 0 16061805.699 -11185225.292 -16335140.865 10 0 61026 30600.00000 0 17861184.699 -11704671.401 -13927130.995 10 0 61026 31500.00000 0 19318799.024 -12260522.934 -11248171.387 10 0 61026 32400.00000 0 20411388.111 -12797917.279 -8350405.155 10 0 61026 33300.00000 0 21128587.702 -13260073.007 -5290225.154 10 0 61026 34200.00000 0 21473168.906 -13590862.799 -2127169.600 10 0 61026 35100.00000 0 21460738.707 -13737371.123 1077243.242 10 0 61026 36000.00000 0 21118915.881 -13652327.611 4260717.856 10 0 61026 36900.00000 0 20486018.513 -13296312.538 7361397.468 10 0 61026 37800.00000 0 19609319.884 -12639640.583 10319068.951 10 0 61026 38700.00000 0 18542947.539 -11663842.924 13076332.725 10 0 61026 39600.00000 0 17345515.167 -10362684.853 15579714.685 10 0 61026 40500.00000 0 16077587.740 -8742675.881 17780698.736 10 0 61026 41400.00000 0 14799086.939 -6823050.651 19636660.352 10 0 61026 42300.00000 0 13566745.837 -4635221.211 21111683.816 10 0 61026 43200.00000 0 12431719.267 -2221723.158 22177248.290 10 0 61026 44100.00000 0 11437449.279 365301.005 22812770.529 10 0 61026 45000.00000 0 10617874.126 3066018.889 23005994.790 10 0 61026 45900.00000 0 9996054.618 5815146.947 22753223.351 10 0 61026 46800.00000 0 9583274.214 8544419.187 22059383.862 10 0 61026 47700.00000 0 9378649.529 11185184.757 20937932.603 10 0 61026 48600.00000 0 9369266.781 13671028.078 19410595.552 10 0 61026 49500.00000 0 9530837.974 15940304.245 17506951.940 10 0 61026 50400.00000 0 9828849.112 17938485.678 15263867.742 10 0 61026 51300.00000 0 10220152.294 19620223.652 12724789.239 10 0 61026 52200.00000 0 10654935.035 20951039.781 9938909.404 10 0 61026 53100.00000 0 11078984.285 21908577.567 6960222.336 10 0 61026 54000.00000 0 11436150.036 22483362.149 3846483.261 10 0 61026 54900.00000 0 11670904.831 22679036.650 658093.608 10 0 61026 55800.00000 0 11730891.026 22512065.207 -2543067.557 10 0 61026 56700.00000 0 11569347.897 22010915.053 -5694843.237 10 0 61026 57600.00000 0 11147315.353 21214751.876 -8736005.983 10 0 61026 58500.00000 0 10435520.155 20171703.155 -11607449.390 10 0 61026 59400.00000 0 9415863.704 18936762.481 -14253340.091 10 0 61026 60300.00000 0 8082447.040 17569423.024 -16622207.450 10 0 61026 61200.00000 0 6442088.166 16131139.816 -18667949.267 10 0 61026 62100.00000 0 4514308.079 14682727.768 -20350733.594 10 0 61026 63000.00000 0 2330784.270 13281805.016 -21637778.802 10 0 61026 63900.00000 0 -65707.118 11980389.284 -22503996.438 10 0 61026 64800.00000 0 -2622817.787 10822748.433 -22932484.193 10 0 61026 65700.00000 0 -5280560.001 9843595.588 -22914859.195 10 0 61026 66600.00000 0 -7973565.916 9066704.670 -22451424.960 10 0 61026 67500.00000 0 -10633580.146 8504004.410 -21551168.541 10 0 61026 68400.00000 0 -13192082.247 8155188.628 -20231587.678 10 0 61026 69300.00000 0 -15582930.131 8007858.839 -18518351.093 10 0 61026 70200.00000 0 -17744914.415 8038192.614 -16444798.298 10 0 61026 71100.00000 0 -19624117.248 8212108.849 -14051288.514 10 0 61026 72000.00000 0 -21175977.207 8486880.018 -11384411.377 10 0 61026 72900.00000 0 -22366974.134 8813122.369 -8496074.943 10 0 61026 73800.00000 0 -23175863.777 9137078.964 -5442489.111 10 0 61026 74700.00000 0 -23594411.059 9403097.924 -2283064.830 10 0 61026 75600.00000 0 -23627592.042 9556199.961 920748.772 10 0 61026 76500.00000 0 -23293257.206 9544625.520 4106665.911 10 0 61026 77400.00000 0 -22621271.411 9322252.844 7212780.098 10 0 61026 78300.00000 0 -21652168.103 8850783.950 10178770.180 10 0 61026 79200.00000 0 -20435375.633 8101605.557 12947072.537 10 0 61026 80100.00000 0 -19027091.483 7057245.994 15463996.407 10 0 61026 81000.00000 0 -17487894.622 5712366.385 17680760.807 10 0 61026 81900.00000 0 -15880196.776 4074244.160 19554433.399 10 0 61026 82800.00000 0 -14265639.681 2162728.312 21048753.810 10 0 61026 83700.00000 0 -12702547.082 9667.877 22134826.443 10 0 61026 84600.00000 0 -11243537.400 -2342163.025 22791670.459 10 0 61026 85500.00000 0 -9933395.954 -4840599.509 23006617.332 99